Time,TemperatureF,DewpointF,PressureIn,WindDirection,WindDirectionDegrees,WindSpeedMPH,WindSpeedGustMPH,Humidity,HourlyPrecipIn,Conditions,Clouds,dailyrainin,SolarRadiationWatts/m^2,SoftwareType,DateUTC
2013-07-22 00:01:00,75.0,71.0,29.94,North,0,0.0,0.0,87,0.00,,,0.19,0.000000,,2013-07-22 04:01:00,
2013-07-22 00:12:00,75.0,71.0,29.94,North,0,0.0,0.0,87,0.00,,,0.18,0.000000,,2013-07-22 04:12:00,
2013-07-22 00:22:00,75.0,71.0,29.95,North,0,0.0,0.0,87,0.00,,,0.18,0.000000,,2013-07-22 04:22:00,
2013-07-22 00:33:00,75.0,71.0,29.94,North,0,0.0,0.0,87,0.00,,,0.18,0.000000,,2013-07-22 04:33:00,
2013-07-22 00:43:00,74.0,70.0,29.94,North,0,0.0,0.0,87,0.00,,,0.18,0.000000,,2013-07-22 04:43:00,
2013-07-22 01:02:00,74.0,70.0,29.94,North,0,0.0,0.0,88,0.00,,,0.17,0.000000,,2013-07-22 05:02:00,
2013-07-22 01:11:00,74.0,70.0,29.94,North,0,0.0,0.0,88,0.00,,,0.17,0.000000,,2013-07-22 05:11:00,
2013-07-22 01:32:00,74.0,71.0,29.93,North,0,0.0,0.0,90,0.01,,,0.18,0.000000,,2013-07-22 05:32:00,
2013-07-22 01:43:00,74.0,71.0,29.93,North,0,0.0,0.0,90,0.01,,,0.17,0.000000,,2013-07-22 05:43:00,
2013-07-22 02:01:00,73.0,70.0,29.91,North,0,0.0,0.0,90,0.01,,,0.17,0.000000,,2013-07-22 06:01:00,
2013-07-22 02:11:00,73.0,70.0,29.91,North,0,0.0,0.0,90,0.01,,,0.17,0.000000,,2013-07-22 06:11:00,
2013-07-22 02:33:00,72.0,69.0,29.91,North,0,0.0,0.0,91,0.00,,,0.17,0.000000,,2013-07-22 06:33:00,
2013-07-22 02:43:00,72.0,69.0,29.91,North,0,0.0,0.0,91,0.00,,,0.16,0.000000,,2013-07-22 06:43:00,
2013-07-22 03:01:00,72.0,69.0,29.90,North,0,0.0,0.0,91,0.00,,,0.16,0.000000,,2013-07-22 07:01:00,
2013-07-22 03:12:00,72.0,70.0,29.89,North,0,0.0,0.0,92,0.00,,,0.16,0.000000,,2013-07-22 07:12:00,
2013-07-22 03:22:00,72.0,69.0,29.89,North,0,0.0,0.0,91,0.00,,,0.16,0.000000,,2013-07-22 07:22:00,
2013-07-22 03:33:00,72.0,70.0,29.88,North,0,0.0,0.0,92,0.00,,,0.16,0.000000,,2013-07-22 07:33:00,
2013-07-22 03:43:00,72.0,70.0,29.88,North,0,0.0,0.0,92,0.00,,,0.16,0.000000,,2013-07-22 07:43:00,
2013-07-22 04:02:00,72.0,70.0,29.88,WSW,256,0.0,1.0,92,0.00,,,0.15,0.000000,,2013-07-22 08:02:00,
2013-07-22 04:11:00,72.0,70.0,29.88,WSW,256,0.0,1.0,92,0.00,,,0.15,0.000000,,2013-07-22 08:11:00,
2013-07-22 04:32:00,72.0,70.0,29.88,SSW,199,1.0,6.0,92,0.00,,,0.15,0.000000,,2013-07-22 08:32:00,
2013-07-22 04:43:00,72.0,70.0,29.88,SSW,199,1.0,6.0,92,0.00,,,0.15,0.000000,,2013-07-22 08:43:00,
2013-07-22 05:02:00,72.0,70.0,29.87,North,0,0.0,0.0,92,0.01,,,0.16,0.000000,,2013-07-22 09:02:00,
2013-07-22 05:11:00,72.0,70.0,29.87,North,0,0.0,0.0,92,0.01,,,0.16,0.000000,,2013-07-22 09:11:00,
2013-07-22 05:33:00,72.0,70.0,29.86,North,0,0.0,0.0,92,0.01,,,0.15,0.000000,,2013-07-22 09:33:00,
2013-07-22 05:42:00,72.0,70.0,29.86,North,0,0.0,0.0,93,0.00,,,0.15,0.000000,,2013-07-22 09:42:00,
2013-07-22 06:02:00,72.0,70.0,29.86,North,0,0.0,0.0,93,0.00,,,0.15,0.000000,,2013-07-22 10:02:00,
2013-07-22 06:11:00,71.0,69.0,29.87,North,0,0.0,0.0,93,0.00,,,0.15,0.000000,,2013-07-22 10:11:00,
2013-07-22 06:32:00,71.0,69.0,29.87,North,0,0.0,0.0,93,0.00,,,0.15,0.000000,,2013-07-22 10:32:00,
2013-07-22 06:43:00,71.0,69.0,29.87,North,0,0.0,0.0,94,0.00,,,0.15,0.000000,,2013-07-22 10:43:00,
2013-07-22 06:52:00,71.0,69.0,29.87,North,0,0.0,0.0,94,0.00,,,0.15,0.000000,,2013-07-22 10:52:00,
2013-07-22 07:02:00,71.0,69.0,29.88,North,0,0.0,0.0,94,0.01,,,0.15,0.000000,,2013-07-22 11:02:00,
2013-07-22 07:11:00,71.0,69.0,29.88,South,186,1.0,3.0,94,0.01,,,0.15,5.000000,,2013-07-22 11:11:00,
2013-07-22 07:23:00,71.0,69.0,29.88,South,186,1.0,3.0,94,0.01,,,0.15,9.000000,,2013-07-22 11:23:00,
2013-07-22 07:32:00,71.0,69.0,29.88,South,187,2.0,4.0,94,0.01,,,0.15,7.000000,,2013-07-22 11:32:00,
2013-07-22 07:43:00,71.0,69.0,29.88,South,187,2.0,4.0,94,0.01,,,0.15,7.000000,,2013-07-22 11:43:00,
2013-07-22 08:02:00,71.0,69.0,29.88,SSW,197,1.0,6.0,93,0.00,,,0.14,32.000000,,2013-07-22 12:02:00,
2013-07-22 08:11:00,70.0,68.0,29.88,SSW,201,2.0,7.0,93,0.00,,,0.14,58.000000,,2013-07-22 12:11:00,
2013-07-22 08:33:00,70.0,68.0,29.88,SSW,204,2.0,6.0,92,0.00,,,0.14,40.000000,,2013-07-22 12:33:00,
2013-07-22 08:43:00,70.0,68.0,29.87,SSW,204,2.0,5.0,92,0.00,,,0.14,39.000000,,2013-07-22 12:43:00,
2013-07-22 08:53:00,70.0,68.0,29.87,SSW,204,2.0,5.0,92,0.00,,,0.14,39.000000,,2013-07-22 12:53:00,
2013-07-22 09:01:00,70.0,68.0,29.88,SSE,164,1.0,3.0,93,0.00,,,0.14,35.000000,,2013-07-22 13:01:00,
2013-07-22 09:22:00,70.0,68.0,29.88,SSE,164,2.0,4.0,93,0.00,,,0.14,60.000000,,2013-07-22 13:22:00,
2013-07-22 09:43:00,70.0,68.0,29.88,SW,231,1.0,4.0,93,0.01,,,0.15,232.000000,,2013-07-22 13:43:00,
2013-07-22 09:53:00,70.0,68.0,29.88,SW,231,1.0,4.0,93,0.01,,,0.15,232.000000,,2013-07-22 13:53:00,
2013-07-22 10:32:00,71.0,69.0,29.88,SSW,203,2.0,6.0,92,0.01,,,0.14,202.000000,,2013-07-22 14:32:00,
2013-07-22 10:53:00,71.0,68.0,29.87,SW,219,3.0,6.0,91,0.00,,,0.14,294.000000,,2013-07-22 14:53:00,
2013-07-22 11:22:00,72.0,69.0,29.88,WSW,246,4.0,9.0,90,0.00,,,0.13,95.000000,,2013-07-22 15:22:00,
2013-07-22 11:33:00,72.0,69.0,29.88,WSW,246,3.0,6.0,90,0.00,,,0.13,76.000000,,2013-07-22 15:33:00,
2013-07-22 11:43:00,72.0,69.0,29.88,WSW,246,3.0,6.0,90,0.00,,,0.13,76.000000,,2013-07-22 15:43:00,
2013-07-22 11:52:00,72.0,69.0,29.88,WSW,239,1.0,8.0,91,0.01,,,0.14,104.000000,,2013-07-22 15:52:00,
2013-07-22 12:11:00,72.0,69.0,29.88,SW,236,3.0,8.0,91,0.01,,,0.14,111.000000,,2013-07-22 16:11:00,
2013-07-22 12:43:00,71.0,68.0,29.87,SW,231,1.0,4.0,91,0.00,,,0.13,81.000000,,2013-07-22 16:43:00,
2013-07-22 12:52:00,71.0,69.0,29.87,SW,231,0.0,3.0,92,0.00,,,0.12,93.000000,,2013-07-22 16:52:00,
2013-07-22 13:23:00,72.0,70.0,29.86,SW,230,1.0,5.0,92,0.00,,,0.12,160.000000,,2013-07-22 17:23:00,
2013-07-22 13:32:00,72.0,70.0,29.86,SW,231,1.0,4.0,92,0.00,,,0.12,181.000000,,2013-07-22 17:32:00,
2013-07-22 13:43:00,72.0,70.0,29.86,SW,221,1.0,4.0,92,0.00,,,0.12,181.000000,,2013-07-22 17:43:00,
2013-07-22 13:52:00,73.0,70.0,29.85,SW,220,1.0,4.0,91,0.00,,,0.11,216.000000,,2013-07-22 17:52:00,
2013-07-22 15:24:00,73.0,70.0,29.82,WSW,243,2.0,6.0,89,0.00,,,0.11,311.000000,,2013-07-22 19:24:00,
2013-07-22 15:55:00,73.0,69.0,29.82,SSW,194,1.0,4.0,88,0.01,,,0.12,169.000000,,2013-07-22 19:55:00,
2013-07-22 16:04:00,73.0,69.0,29.82,SSW,194,1.0,4.0,88,0.01,,,0.12,169.000000,,2013-07-22 20:04:00,
2013-07-22 16:22:00,74.0,70.0,29.81,SW,231,1.0,4.0,88,0.01,,,0.11,211.000000,,2013-07-22 20:22:00,
2013-07-22 16:43:00,74.0,70.0,29.82,WSW,244,1.0,5.0,86,0.01,,,0.11,476.000000,,2013-07-22 20:43:00,
2013-07-22 16:52:00,75.0,71.0,29.81,WSW,240,2.0,5.0,86,0.00,,,0.11,490.000000,,2013-07-22 20:52:00,
2013-07-22 17:12:00,76.0,70.0,29.81,WSW,239,3.0,6.0,82,0.00,,,0.10,531.000000,,2013-07-22 21:12:00,
2013-07-22 17:22:00,76.0,70.0,29.81,WSW,239,3.0,6.0,82,0.00,,,0.10,531.000000,,2013-07-22 21:22:00,
2013-07-22 17:32:00,76.0,70.0,29.81,SSW,201,3.0,5.0,83,0.00,,,0.10,387.000000,,2013-07-22 21:32:00,
2013-07-22 17:43:00,76.0,70.0,29.81,SSW,211,2.0,5.0,83,0.00,,,0.10,418.000000,,2013-07-22 21:43:00,
2013-07-22 17:52:00,76.0,70.0,29.81,SSW,212,3.0,6.0,82,0.00,,,0.10,225.000000,,2013-07-22 21:52:00,
2013-07-22 18:01:00,76.0,70.0,29.80,SSW,211,1.0,5.0,83,0.01,,,0.11,186.000000,,2013-07-22 22:01:00,
2013-07-22 18:22:00,76.0,70.0,29.79,SSW,211,0.0,3.0,82,0.01,,,0.11,127.000000,,2013-07-22 22:22:00,
2013-07-22 18:43:00,75.0,70.0,29.78,North,0,0.0,0.0,85,0.01,,,0.10,95.000000,,2013-07-22 22:43:00,
2013-07-22 18:52:00,75.0,71.0,29.78,SSW,211,0.0,3.0,86,0.01,,,0.10,84.000000,,2013-07-22 22:52:00,
2013-07-22 19:01:00,75.0,71.0,29.79,SSW,211,1.0,3.0,86,0.00,,,0.10,83.000000,,2013-07-22 23:01:00,
2013-07-22 19:11:00,75.0,71.0,29.79,SSW,211,1.0,3.0,86,0.00,,,0.10,83.000000,,2013-07-22 23:11:00,
2013-07-22 19:32:00,75.0,71.0,29.79,North,0,0.0,0.0,86,0.00,,,0.10,185.000000,,2013-07-22 23:32:00,
2013-07-22 19:42:00,76.0,72.0,29.79,WNW,290,0.0,1.0,87,0.01,,,0.11,172.000000,,2013-07-22 23:42:00,
2013-07-22 20:01:00,76.0,72.0,29.78,NW,305,0.0,2.0,87,0.01,,,0.10,70.000000,,2013-07-23 00:01:00,
2013-07-22 20:12:00,76.0,72.0,29.78,NW,316,1.0,3.0,87,0.01,,,0.10,107.000000,,2013-07-23 00:12:00,
2013-07-22 20:32:00,76.0,71.0,29.79,North,0,0.0,0.0,85,0.01,,,0.10,60.000000,,2013-07-23 00:32:00,
2013-07-22 20:43:00,75.0,70.0,29.79,North,0,0.0,0.0,85,0.00,,,0.10,28.000000,,2013-07-23 00:43:00,
2013-07-22 20:52:00,75.0,70.0,29.79,North,0,0.0,0.0,85,0.00,,,0.10,28.000000,,2013-07-23 00:52:00,
2013-07-22 21:01:00,74.0,70.0,29.80,North,0,0.0,0.0,88,0.00,,,0.10,11.000000,,2013-07-23 01:01:00,
2013-07-22 21:22:00,74.0,71.0,29.79,North,0,0.0,0.0,89,0.00,,,0.10,0.000000,,2013-07-23 01:22:00,
2013-07-22 21:32:00,73.0,70.0,29.80,North,0,0.0,0.0,90,0.00,,,0.10,0.000000,,2013-07-23 01:32:00,
2013-07-22 21:43:00,73.0,70.0,29.80,North,0,0.0,0.0,91,0.00,,,0.10,0.000000,,2013-07-23 01:43:00,
2013-07-22 22:53:00,71.0,69.0,29.82,North,0,0.0,0.0,93,0.01,,,0.10,0.000000,,2013-07-23 02:53:00,
2013-07-22 23:11:00,71.0,69.0,29.83,SE,146,0.0,1.0,93,0.00,,,0.10,0.000000,,2013-07-23 03:11:00,
2013-07-22 23:22:00,70.0,68.0,29.83,North,0,0.0,0.0,93,0.00,,,0.10,0.000000,,2013-07-23 03:22:00,
2013-07-22 23:43:00,70.0,68.0,29.83,North,0,0.0,0.0,94,0.00,,,0.10,0.000000,,2013-07-23 03:43:00,
2013-07-22 23:52:00,70.0,68.0,29.83,North,0,0.0,0.0,94,0.00,,,0.10,0.000000,,2013-07-23 03:52:00,